sat.trackr.live / text

‹ back to catalog

CAPELLA-17 (ACADIA-7)

NORAD 64583 · 2025-135BH

PAYLOAD ACTIVE UNKNOWN

§ Identity

Operator
Country
US
Launch date
2025-06-23
Launch site
AFWTR
Launch vehicle
Mass (kg)
RCS (m²)

External: N2YO · Heavens-Above · Gunter

§ Orbital elements

Epoch: 2026-05-24T23:49:55.549056Z

Period
96.55 min
Inclination
97.7657°
Eccentricity
0.0006595
Mean motion
14.91496011 rev/d
Perigee alt
588.7 km
Apogee alt
597.9 km
Semi-major
6,971.4 km
B*
6.7665e-4
RAAN
258.9623°
Arg perigee
82.8978°
Mean anomaly
277.2990°
Rev number
5,039

§ Raw data

CAPELLA-17 (ACADIA-7)1 64583U 25135BH  26144.99300404  .00006723  00000+0  67665-3 0  99982 64583  97.7657 258.9623 0006595  82.8978 277.2990 14.91496011 50390

JSON: /api/v1/satellites/64583 · /tle

For live sub-satellite position, see the globe view (requires WebGL).

§ Visibility from observer

Set your observer location to see the next 7 days of passes ≥ 10°. The values pass through the URL so the page stays shareable.

No JS? Fill the form by hand. The geolocation button needs JavaScript.